BMCB-18 Weather Reports


time (UTC)temp
C
wind
direction
speed
KPH
gust
KPH
rain 1hr
cm
rain 24hr
cm
rain mn
cm
humidity
%
barometer
mb
20260506214049 7 0 0.0 0.0 0.00 1.32 1.27 95 1013.9
20260506213048 7 0 0.0 0.0 0.00 1.35 1.27 95 1013.8
20260506212050 8 0 0.0 0.0 0.00 1.37 1.27 94 1013.7
20260506211050 8 0 0.0 0.0 0.00 1.40 1.27 93 1013.6
20260506210047 8 0 0.0 0.0 0.00 1.42 1.27 92 1013.4
20260506204047 8 0 0.0 0.0 0.00 1.47 1.27 90 1013.4
20260506203049 8 0 0.0 0.0 0.00 1.47 1.27 89 1013.3
20260506202048 8 0 0.0 0.0 0.00 1.50 1.27 89 1013.3
20260506201053 8 0 0.0 0.0 0.00 1.52 1.27 89 1013.2
20260506200051 8 0 0.0 0.0 0.00 1.55 1.27 89 1013.1
20260506194051 8 0 0.0 0.0 0.00 1.57 1.27 91 1013.0
20260506193050 8 0 0.0 0.0 0.00 1.63 1.27 91 1012.9
20260506192046 8 0 0.0 0.0 0.00 1.65 1.27 91 1012.8
20260506185050 9 0 0.0 0.0 0.00 1.70 1.27 86 1012.5
20260506183051 10 0 0.0 0.0 0.00 1.75 1.27 83 1012.3
20260506180047 10 0 0.0 0.0 0.00 1.80 1.27 82 1011.9
20260506175048 10 0 0.0 0.0 0.00 1.83 1.27 82 1011.7
20260506173044 11 0 0.0 0.0 0.00 1.83 1.27 81 1011.5
20260506172045 11 0 0.0 0.0 0.00 1.85 1.27 79 1011.4
20260506171046 11 0 0.0 0.0 0.00 1.85 1.27 78 1011.3
20260506170043 11 0 0.0 0.0 0.00 1.85 1.27 78 1011.3
20260506165043 11 0 0.0 0.0 0.00 1.88 1.27 78 1011.2
20260506163046 12 0 0.0 0.0 0.00 1.88 1.27 79 1011.0
20260506161045 11 0 0.0 0.0 0.00 1.88 1.27 83 1011.1
20260506160043 11 0 0.0 0.0 0.00 1.88 1.27 83 1011.1
20260506155047 11 0 0.0 0.0 0.00 1.88 1.27 84 1011.0
20260506154050 11 0 0.0 0.0 0.00 1.88 1.27 84 1010.9
20260506152049 12 0 0.0 0.0 0.00 1.88 1.27 82 1010.8
20260506151050 11 0 0.0 0.0 0.00 1.88 1.27 86 1010.8
20260506150048 11 0 0.0 0.0 0.00 1.88 1.27 87 1010.8
20260506145046 11 0 0.0 0.0 0.00 1.88 1.27 87 1010.8
20260506144044 11 0 0.0 0.0 0.00 1.88 1.27 83 1010.8
20260506141045 11 0 0.0 0.0 0.00 1.88 1.27 84 1010.8
20260506140054 11 0 0.0 0.0 0.00 1.88 1.27 82 1010.8
20260506135048 12 0 0.0 0.0 0.00 1.88 1.27 82 1010.7
20260506134048 11 0 0.0 0.0 0.00 1.88 1.27 84 1010.8
20260506132045 11 0 0.0 0.0 0.00 1.88 1.27 87 1010.9
20260506130043 10 0 0.0 0.0 0.00 1.88 1.27 88 1010.8
20260506125045 10 0 0.0 0.0 0.00 1.88 1.27 89 1010.8
20260506124045 10 0 0.0 0.0 0.00 1.88 1.27 88 1010.7
20260506123045 10 0 0.0 0.0 0.00 1.88 1.27 87 1010.6
20260506122045 11 0 0.0 0.0 0.00 1.88 1.27 87 1010.6
20260506121046 11 0 0.0 0.0 0.03 1.88 1.27 89 1010.6
20260506120046 10 0 0.0 0.0 0.03 1.88 1.27 90 1010.5
20260506114044 10 0 0.0 0.0 0.03 1.88 1.27 94 1010.5
20260506112048 10 0 0.0 0.0 0.03 1.88 1.27 96 1010.5
20260506111048 10 0 0.0 0.0 0.03 1.88 1.27 97 1010.6
20260506110047 10 0 0.0 0.0 0.00 1.85 1.27 98 1010.6
20260506105043 9 0 0.0 0.0 0.03 1.85 1.27 98 1010.5
20260506104044 9 0 0.0 0.0 0.03 1.85 1.27 98 1010.5
20260506103045 9 0 0.0 0.0 0.03 1.85 1.27 99 1010.5
20260506101044 9 0 0.0 0.0 0.03 1.85 1.27 99 1010.3
20260506100043 8 0 0.0 0.0 0.05 1.85 1.27 10 1010.2
20260506095044 8 0 0.0 0.0 0.05 1.85 1.27 10 1010.2
20260506093043 8 0 0.0 0.0 0.05 1.83 1.24 10 1010.0
20260506091044 8 0 0.0 0.0 0.08 1.83 1.24 10 1010.0
20260506090047 8 0 0.0 0.0 0.10 1.83 1.24 10 1009.9
20260506085047 8 0 0.0 0.0 0.08 1.83 1.22 10 1009.8
20260506084042 8 0 0.0 0.0 0.08 1.83 1.22 10 1009.7
20260506082044 8 0 0.0 0.0 0.05 1.80 1.17 10 1009.5
20260506081045 8 0 0.0 0.0 0.05 1.80 1.17 10 1009.5
20260506073042 8 0 0.0 0.0 0.08 1.75 1.14 10 1009.2
20260506072042 8 0 0.0 0.0 0.10 1.75 1.14 10 1009.1
20260506071049 8 0 0.0 0.0 0.08 1.75 1.12 10 1009.1
20260506062046 7 0 0.0 0.0 0.05 1.68 1.07 10 1008.9
20260506051042 7 0 0.0 0.0 0.13 1.65 0.99 10 1008.9
20260506045045 7 0 0.0 0.0 0.10 1.60 0.97 10 1008.9
20260506041045 7 0 0.0 0.0 0.13 1.52 0.89 10 1008.7
20260506035047 7 0 0.0 0.0 0.13 1.50 0.86 10 1008.8
20260506034044 7 0 0.0 0.0 0.15 1.50 0.86 10 1008.8
20260506033043 7 0 0.0 0.0 0.15 1.47 0.84 10 1008.8
20260506032044 7 0 0.0 0.0 0.15 1.47 0.84 10 1008.9
20260506031042 7 0 0.0 0.0 0.15 1.45 0.81 10 1008.8
20260506024044 8 0 0.0 0.0 0.15 1.37 0.74 10 1009.0
20260506023048 8 0 0.0 0.0 0.15 1.37 0.71 10 1009.0
20260506022045 8 0 0.0 0.0 0.15 1.35 0.71 10 1009.1
20260506021043 8 0 0.0 0.0 0.15 1.32 0.69 10 1009.1
20260506020043 8 0 0.0 0.0 0.18 1.30 0.66 10 1009.2
20260506014044 8 0 0.0 0.0 0.18 1.27 0.61 10 1009.2
20260506013043 8 0 0.0 0.0 0.15 1.22 0.58 10 1009.2
20260506012045 8 0 0.0 0.0 0.15 1.19 0.56 10 1009.2
20260506011044 8 0 0.0 0.0 0.15 1.17 0.53 10 1009.2
20260506010043 8 0 0.0 0.0 0.18 1.17 0.51 10 1009.3
20260506005044 8 0 0.0 0.0 0.18 1.12 0.48 10 1009.3
20260506004043 8 0 0.0 0.0 0.18 1.09 0.46 10 1009.4
20260506003042 8 0 0.0 0.0 0.20 1.09 0.43 10 1009.5
20260506000045 8 0 0.0 0.0 0.23 1.02 0.38 10 1009.7
20260505235046 8 0 0.0 0.0 0.23 0.99 0.33 10 1009.8
20260505234043 8 0 0.0 0.0 0.20 0.94 0.30 10 1009.8
20260505232047 8 0 0.0 0.0 0.20 0.89 0.23 10 1009.8
20260505231046 8 0 0.0 0.0 0.18 0.84 0.20 10 1009.9
20260505223049 8 0 0.0 0.0 0.15 0.74 0.10 10 1010.1
20260505222046 9 0 0.0 0.0 0.15 0.71 0.05 10 1010.1
20260505221051 9 0 0.0 0.0 0.15 0.69 0.05 10 1010.1
20260505220045 9 0 0.0 0.0 0.15 0.66 0.03 10 1010.2
20260505215052 9 0 0.0 0.0 0.18 0.64 0.64 10 1010.2